Location: Boiro
(42.6475°N, 8.8834°W)
Time: 13:45:31
(UTC+01:00)

Envisat - Pass Details

Date: 01 November 2021
Orbit: 764 x 766 km, 98.2° (Epoch: 07 December)

Event Time Altitude Azimuth Distance (km) Brightness Sun altitude
Rises 05:22:01 0° 32° (NNE) 3,240 6.8 -31.2°
Reaches altitude 10° 05:25:21 10° 55° (NE) 2,307 6.2 -30.6°
Maximum altitude 05:28:14 15° 90° (E) 1,969 5.9 -30.1°
Drops below altitude 10° 05:31:06 10° 125° (SE) 2,297 6.0 -29.5°
Sets 05:34:24 0° 148° (SSE) 3,216 6.5 -28.9°
